Lapse_Rate
2.7 3.4 3.6 3.6 3.6 3.6 3.6 3.4 3.4 3.4 3.8 3.4 3.9 4.5 4.2 4.0 3.5 3.5 3.3 2.7 3.8 2.3
2.4 2.8 3.6 3.2 3.3 3.7 3.9 3.9 3.6 3.6 3.9 3.9 3.7 4.1 3.7 3.7 3.5 3.0 2.8 2.2 2.6 3.4
3.7 4.0 4.2 4.7 4.4 3.8 3.4 3.2 3.5 3.4 4.1 4.3 4.4 4.2 4.7 4.4 3.8 3.7 2.5 2.7 2.5 2.5
3.2 3.6 4.0 4.3 4.9 5.3 5.1 4.3 3.8 4.3 4.3 4.8 4.5 4.8 4.6 4.6 3.9 3.5 3.6 3.5 2.2 3.0
3.8 4.0 3.5 3.4 3.1 3.6 3.8 4.5 5.0 4.3 4.4 4.8 3.9 4.1 4.5 5.0 4.3 3.9 4.2 2.9 3.1 3.0
1.5 2.0 3.1 3.2 3.2 3.8 4.2 3.5 3.3 3.3 3.2 2.5 2.2 3.4 3.9 4.9 4.0 3.8 4.3 3.7 3.7 3.3
0.3 1.3 1.6 3.7 4.0 4.1 4.3 3.7 3.9 3.9 3.8 3.5 3.8 3.5 3.3 4.1 4.8 4.0 4.7 4.2 3.7 3.9
-0.3 0.6 0.9 1.5 2.7 4.4 4.0 4.4 4.5 4.5 4.4 4.3 4.0 3.9 3.7 4.4 5.0 4.4 4.3 3.5 3.4 2.8
0.5 -0.2 0.4 0.6 1.2 2.0 3.8 4.8 4.6 4.3 4.2 4.2 4.3 3.5 3.5 4.0 4.2 4.0 4.7 4.2 3.4 2.9
1.0 0.5 -0.3 0.4 0.7 0.7 1.5 3.2 4.3 4.2 4.0 4.2 4.2 3.5 3.6 3.7 4.1 4.0 3.8 3.5 2.9 2.2
1.6 1.0 0.6 0.3 0.3 0.1 1.1 1.4 2.3 2.7 3.4 3.9 4.0 3.4 3.4 3.2 3.7 3.5 3.4 3.2 2.6 2.7
2.1 1.6 1.5 1.4 1.4 0.6 0.7 1.0 1.5 1.6 1.8 2.3 2.2 2.6 2.9 2.9 2.9 3.5 3.4 3.2 2.9 2.8
3.2 2.2 1.7 2.0 1.7 1.5 1.3 1.5 1.4 1.7 1.1 1.7 1.7 2.0 2.7 2.8 2.5 2.6 2.2 2.0 1.9 2.1
4.7 3.8 2.3 2.2 2.4 2.5 2.0 2.2 1.5 1.5 1.5 1.5 1.7 1.8 2.4 2.9 2.9 2.6 2.1 1.9 1.5 1.3
Wind_Speed
10 8 7 9 7 8 8 9 11 12 13 14 17 16 16 9 9 10 9 9 8 4
5 6 8 8 7 8 9 9 11 13 13 13 14 14 12 10 12 11 10 8 8 7
7 8 7 6 9 7 7 7 9 11 14 14 15 15 14 12 10 11 9 7 9 8
4 4 4 3 5 8 10 10 11 13 14 15 14 15 15 14 12 13 12 10 10 11
4 4 3 4 4 5 7 9 11 11 12 12 12 13 15 15 13 15 14 13 11 12
8 6 4 3 3 4 4 5 4 7 9 9 8 10 12 13 11 11 11 11 13 12
9 8 7 3 3 3 3 4 6 7 8 9 9 9 8 9 9 10 11 10 11 11
10 8 8 7 5 5 5 4 4 4 6 7 8 8 9 9 8 9 8 6 8 7
11 10 10 8 7 7 4 3 5 6 6 7 6 11 12 10 8 6 7 8 6 6
13 11 12 10 8 8 8 5 1 4 6 7 6 12 13 13 7 8 7 6 5 5
13 13 12 12 10 9 7 6 5 5 4 3 2 8 9 11 6 6 6 7 6 5
12 12 12 11 10 8 8 8 8 5 9 8 8 8 4 6 4 5 5 4 4 6
11 9 10 9 10 9 9 7 6 8 9 12 7 14 11 6 2 3 2 2 2 6
11 11 11 8 7 8 8 7 9 8 8 9 10 9 14 9 2 2 2 2 1 0
Wind_Direction
179 182 181 180 180 185 189 197 189 194 192 191 193 194 190 191 193 194 197 194 197 177
167 180 188 181 187 192 197 197 190 192 197 200 194 194 193 195 197 192 195 197 192 194
181 189 198 186 189 190 196 192 193 198 201 200 200 196 195 201 199 195 196 194 191 195
160 155 164 194 212 221 216 200 198 201 202 205 202 199 197 197 190 194 196 195 192 205
121 152 159 212 230 219 232 214 204 201 204 205 199 202 200 198 192 195 196 198 192 204
34 38 333 182 198 182 182 177 166 169 174 175 181 199 204 198 183 191 202 197 200 204
29 17 4 324 166 156 158 158 175 184 191 188 190 189 189 187 191 187 202 198 200 203
15 18 20 8 20 176 156 175 174 165 180 186 188 192 193 193 194 188 190 194 196 196
19 26 25 11 20 45 48 181 181 189 180 176 182 181 188 191 199 197 201 207 204 200
19 17 19 15 19 31 35 16 127 188 174 181 176 175 180 181 179 179 188 188 195 196
14 16 9 16 12 21 30 23 43 43 64 114 145 174 180 177 174 176 195 183 177 195
4 18 10 6 3 22 33 21 41 29 59 62 46 55 138 154 160 172 190 181 170 204
1 11 14 356 2 13 30 22 38 40 40 47 45 38 53 80 115 135 149 99 176 187
2 14 13 359 5 11 33 30 32 43 38 34 28 26 26 33 75 93 109 148 147 199